[[{"header":{"parameterUnit":"m.s-1","parameterCategory":2,"la1":30.2991,"la2":30.254,"lo1":-89.0895,"lo2":-89.0444,"dy":0.0017,"dx":0.0017,"nx":28,"ny":28,"refTime":"2024-12-07T03:00:00:Z","depth":"0","parameterNumber":2,"parameterNumberName":"U-component_of_CURRENTS"},"data":[0,0,0,0,0,0,0,0,0,0,0,0,0,0,0,0,0,0,0,0,0,0,0,0,0,0,0,0,0,0,0,0,0,0,0,0,0,0,0,0,0,0,0,0,0,0,0,0,0,0,0,0,0,0,0,0,0,0,0.236,0.2361,0,0.2369,0.2369,0.2369,0.2352,0.2352,0.2351,0.2351,0.2307,0.2306,0.2305,0,0,0,0,0,0,0,0,0,0,0,0,0,0.231,0.2311,0.236,0.2361,0.2361,0.2369,0.2369,0.2369,0.2352,0.2352,0.2351,0.2351,0.2307,0.2306,0.2304,0,0,0,0,0,0,0,0,0,0,0,0,0,0.2323,0.2311,0.236,0.2357,0.2357,0.2369,0.2369,0.2369,0.2352,0.2352,0.2351,0.2351,0.2307,0.2306,0.2304,0.23,0,0,0.23,0.2299,0,0,0,0,0,0,0,0,0.2322,0.2324,0.2357,0.2357,0.2358,0.2363,0.2335,0.2345,0.2352,0.2349,0.2351,0.2351,0.2323,0.2321,0.2317,0.2298,0.2296,0.2299,0.2299,0.2298,0.2297,0,0,0,0,0,0,0,0.2321,0.2324,0.236,0.2358,0.2358,0.2349,0.235,0.2337,0.2333,0.235,0.2349,0.2357,0.2323,0.2319,0.2316,0.2295,0.2299,0.2298,0.2297,0.2297,0.2306,0.2307,0,0,0,0,0,0,0.233,0.2323,0.2359,0.236,0.2344,0.2351,0.2352,0.2358,0.2335,0.2333,0.2358,0.2357,0.2322,0.2318,0.2315,0.2335,0.2298,0.2296,0.2296,0.2305,0.2307,0.2308,0,0,0,0,0,0,0.2329,0.2333,0.2359,0.2345,0.2348,0.2352,0.2359,0.2358,0.2361,0.2342,0.2338,0.2362,0.2321,0.2317,0.2313,0.2332,0.2296,0.2294,0.2304,0.2306,0.2307,0.2359,0,0,0,0,0,0,0.2328,0.2333,0.2336,0.2346,0.235,0.2375,0.236,0.2359,0.2368,0.2367,0.2345,0.234,0.2321,0.2316,0.2312,0.2329,0.2293,0.2302,0.2305,0.2307,0.2356,0.2362,0.2368,0,0,0,0,0,0.2326,0.2331,0.2336,0.234,0.2355,0.2377,0.2377,0.2376,0.2369,0.2375,0.2362,0.2341,0.2327,0.2315,0.231,0.2328,0.2301,0.2304,0.2306,0.2353,0.2361,0.2367,0,0,0,0,0,0,0.2303,0.2331,0.2336,0.2347,0.2367,0.2375,0.2381,0.2382,0.2377,0.2372,0.2349,0.2344,0.2352,0.2334,0.2322,0.234,0.2313,0.2315,0.2351,0.2358,0.2364,0.2371,0.2292,0,0,0,0,0,0.2303,0.2317,0.2343,0.2352,0.2365,0.2375,0.2381,0.2385,0.2386,0.2383,0.2371,0.236,0.2359,0.2353,0.2347,0.2349,0.2355,0.2361,0.2367,0.2372,0.2376,0.2409,0.2418,0.2317,0.2317,0.2316,0,0,0.2293,0.2314,0.2318,0.2349,0.2361,0.2382,0.2377,0.2395,0.2408,0.2379,0.2386,0.238,0.2366,0.2375,0.2376,0.2361,0.2406,0.2375,0.238,0.2381,0.2413,0.2423,0.2431,0.2318,0.2318,0.2318,0,0,0.229,0.2305,0.232,0.2341,0.2373,0.2386,0.2396,0.2415,0.242,0.243,0.242,0.2429,0.2414,0.2418,0.2415,0.2451,0.244,0.2448,0.2479,0.2511,0.252,0.2527,0.2557,0.2566,0.2448,0.2448,0.2448,0,0.2277,0.2302,0.2326,0.235,0.2369,0.2392,0.2414,0.2426,0.2439,0.2451,0.2438,0.245,0.2438,0.246,0.2474,0.2465,0.2479,0.2451,0.2519,0.2527,0.2534,0.2562,0.2572,0.2451,0.2451,0.245,0.245,0,0.2289,0.231,0.2323,0.2364,0.2387,0.241,0.2442,0.2463,0.2473,0.2485,0.2512,0.2506,0.2513,0.2517,0.2502,0.2549,0.2543,0.2526,0.2501,0.2547,0.2574,0.2583,0.2455,0.2454,0.2453,0.2452,0,0,0.2251,0.232,0.2322,0.2343,0.2398,0.2415,0.2456,0.2498,0.252,0.2538,0.2568,0.2578,0.2582,0.258,0.2574,0.26,0.2663,0.2585,0.2585,0.2614,0.2738,0.2739,0.2749,0.2659,0.2661,0.2663,0.274,0,0.2253,0.2299,0.2336,0.2372,0.2398,0.2442,0.2474,0.2513,0.2544,0.2577,0.2597,0.2617,0.2604,0.261,0.264,0.2657,0.269,0.2644,0.2689,0.269,0.2685,0.276,0.268,0.2743,0.275,0.2751,0.2752,0,0.2245,0.2283,0.2324,0.2383,0.2398,0.2422,0.2485,0.2518,0.258,0.2602,0.2642,0.2657,0.2705,0.2681,0.275,0.2722,0.2738,0.2749,0.2752,0.274,0.2709,0.2696,0.276,0.2709,0.2767,0.2766,0.2765,0,0.2199,0.2265,0.2299,0.2318,0.2392,0.2416,0.2456,0.2521,0.2551,0.2622,0.2655,0.2709,0.2741,0.2776,0.2813,0.2784,0.289,0.2849,0.2867,0.2867,0.2801,0.2792,0.2819,0.2903,0.2903,0.2902,0.2902,0,0.2178,0.2199,0.2277,0.2291,0.232,0.2387,0.2421,0.2472,0.2547,0.2588,0.266,0.2708,0.2767,0.2833,0.2848,0.2906,0.2924,0.2895,0.2897,0.2818,0.281,0.2762,0.273,0.2905,0.2905,0.2904,0.2903,0,0.2113,0.2169,0.2199,0.2276,0.2295,0.2312,0.2386,0.2419,0.2505,0.2567,0.2594,0.2722,0.2819,0.2882,0.2954,0.2955,0.2931,0.301,0.2918,0.2907,0.2853,0.2826,0.2761,0.2668,0.3036,0.3037,0.3037,0,0.2084,0.2098,0.2163,0.2177,0.2208,0.2247,0.2278,0.2371,0.242,0.257,0.2605,0.2738,0.282,0.2958,0.3,0.3057,0.2958,0.2999,0.2926,0.2866,0.2837,0.2722,0.2637,0.286,0.2859,0.2858,0.2858,0,0.2024,0.2047,0.2077,0.2108,0.2136,0.216,0.2223,0.2251,0.2376,0.2451,0.2574,0.2659,0.2836,0.2886,0.2991,0.3007,0.2871,0.2984,0.2942,0.2731,0.2585,0.249,0.2795,0.2851,0.2851,0.2852,0.2852,0.2852,0.1968,0.1969,0.2011,0.2027,0.2058,0.2074,0.2066,0.2155,0.2217,0.2318,0.2472,0.2577,0.2744,0.2894,0.2899,0.289,0.2837,0.281,0.2794,0.2691,0.2563,0.2863,0.2906,0.2907,0.2908,0.2909,0.291,0,0.1888,0.1908,0.1931,0.1947,0.1943,0.1985,0.2027,0.2018,0.2057,0.2204,0.2302,0.2485,0.258,0.2699,0.2797,0.2723,0.2572,0.2647,0.2458,0.2389,0.2688,0.2643,0.2606,0.2606,0.2606,0.2607,0.2607,0.2607,0.185,0.184,0.1854,0.1823,0.1834,0.1793,0.1788,0.1803,0.1884,0.1984,0.2095,0.2231,0.2523,0.2713,0.2705,0.2627,0.2401,0.2312,0.2272,0.2497,0.251,0.2521,0.2473,0.2401,0.2401,0.187,0.1866,0.1863]},{"header":{"parameterUnit":"m.s-1","parameterCategory":2,"la1":30.2991,"la2":30.254,"lo1":-89.0895,"lo2":-89.0444,"dy":0.0017,"dx":0.0017,"nx":28,"ny":28,"refTime":"2024-12-07T03:00:00:Z","depth":"0","parameterNumber":3,"parameterNumberName":"V-component_of_CURRENTS"},"data":[0,0,0,0,0,0,0,0,0,0,0,0,0,0,0,0,0,0,0,0,0,0,0,0,0,0,0,0,0,0,0,0,0,0,0,0,0,0,0,0,0,0,0,0,0,0,0,0,0,0,0,0,0,0,0,0,0,0,-0.0369,-0.0369,0,-0.0425,-0.0426,-0.0426,-0.0451,-0.0451,-0.0451,-0.0451,-0.0479,-0.048,-0.048,0,0,0,0,0,0,0,0,0,0,0,0,0,-0.0308,-0.0308,-0.0369,-0.0369,-0.037,-0.0425,-0.0426,-0.0427,-0.0451,-0.0451,-0.0451,-0.0451,-0.0479,-0.048,-0.048,0,0,0,0,0,0,0,0,0,0,0,0,0,-0.0345,-0.0309,-0.0368,-0.039,-0.0393,-0.0425,-0.0426,-0.0427,-0.0451,-0.0451,-0.0451,-0.0451,-0.0479,-0.048,-0.0481,-0.0485,0,0,-0.0484,-0.0484,0,0,0,0,0,0,0,0,-0.0343,-0.0347,-0.0386,-0.0389,-0.0392,-0.0433,-0.0415,-0.0445,-0.0451,-0.0427,-0.0451,-0.0451,-0.0462,-0.0464,-0.0473,-0.0487,-0.0488,-0.0484,-0.0484,-0.0485,-0.0485,0,0,0,0,0,0,0,-0.034,-0.0345,-0.0389,-0.0387,-0.0391,-0.0406,-0.0411,-0.0421,-0.0442,-0.0429,-0.0432,-0.0441,-0.0463,-0.0472,-0.0474,-0.0488,-0.0484,-0.0485,-0.0485,-0.0486,-0.0508,-0.0508,0,0,0,0,0,0,-0.0335,-0.0342,-0.0388,-0.0391,-0.0369,-0.0407,-0.0413,-0.0418,-0.0442,-0.0447,-0.044,-0.0441,-0.047,-0.0472,-0.0475,-0.0469,-0.0485,-0.0486,-0.0486,-0.0508,-0.0508,-0.0508,0,0,0,0,0,0,-0.0333,-0.0338,-0.0385,-0.0369,-0.0377,-0.0408,-0.0414,-0.0419,-0.0428,-0.0451,-0.0455,-0.0444,-0.047,-0.0473,-0.0478,-0.0471,-0.0486,-0.0487,-0.0508,-0.0508,-0.0508,-0.0465,0,0,0,0,0,0,-0.0331,-0.0337,-0.0336,-0.0369,-0.0378,-0.0398,-0.0414,-0.042,-0.0434,-0.0436,-0.0455,-0.0458,-0.047,-0.0477,-0.0479,-0.0472,-0.0488,-0.0508,-0.0508,-0.0508,-0.0467,-0.0464,-0.0461,0,0,0,0,0,-0.0329,-0.0322,-0.0335,-0.0341,-0.0376,-0.0398,-0.0403,-0.0425,-0.0434,-0.0433,-0.0447,-0.0457,-0.0479,-0.0477,-0.0481,-0.0473,-0.0508,-0.0508,-0.0508,-0.0468,-0.0464,-0.0461,0,0,0,0,0,0,-0.029,-0.0325,-0.034,-0.0343,-0.0368,-0.0402,-0.0403,-0.0422,-0.0434,-0.0433,-0.0455,-0.0458,-0.0462,-0.0475,-0.0473,-0.0482,-0.0496,-0.0497,-0.0465,-0.0461,-0.0459,-0.0437,-0.0489,0,0,0,0,0,-0.0283,-0.0288,-0.0325,-0.0327,-0.0337,-0.0371,-0.0382,-0.0399,-0.0417,-0.0423,-0.0439,-0.0454,-0.0465,-0.0468,-0.0481,-0.0482,-0.0495,-0.0481,-0.0479,-0.0476,-0.0462,-0.0483,-0.0481,-0.0508,-0.0508,-0.0508,0,0,-0.0269,-0.0288,-0.0291,-0.0319,-0.0339,-0.0343,-0.0377,-0.0389,-0.0389,-0.0423,-0.0422,-0.0446,-0.0464,-0.0467,-0.047,-0.0475,-0.0476,-0.0476,-0.0474,-0.046,-0.0483,-0.048,-0.0478,-0.0508,-0.0508,-0.0508,0,0,-0.0239,-0.026,-0.0253,-0.0271,-0.03,-0.032,-0.0322,-0.0357,-0.0367,-0.0377,-0.04,-0.0415,-0.0435,-0.0444,-0.0452,-0.0442,-0.0463,-0.0452,-0.0415,-0.0436,-0.0434,-0.0432,-0.0444,-0.0443,-0.0447,-0.0447,-0.0447,0,-0.0219,-0.0219,-0.0254,-0.0252,-0.0258,-0.0305,-0.0296,-0.0314,-0.0345,-0.0345,-0.0369,-0.0399,-0.0421,-0.0416,-0.0417,-0.0433,-0.0447,-0.0424,-0.0432,-0.043,-0.0429,-0.0441,-0.0441,-0.0445,-0.0445,-0.0445,-0.0446,0,-0.0187,-0.0187,-0.0183,-0.0196,-0.0205,-0.0207,-0.0238,-0.0246,-0.027,-0.0291,-0.0302,-0.0341,-0.0355,-0.0373,-0.0391,-0.0391,-0.0404,-0.0428,-0.0436,-0.0423,-0.0437,-0.0438,-0.0442,-0.0443,-0.0443,-0.0444,0,0,-0.0136,-0.0157,-0.0154,-0.0146,-0.0175,-0.0174,-0.0173,-0.0182,-0.017,-0.0217,-0.0205,-0.0246,-0.0276,-0.0287,-0.0321,-0.0343,-0.0355,-0.0378,-0.038,-0.0381,-0.0395,-0.0403,-0.0405,-0.0383,-0.0383,-0.0383,-0.0408,0,-0.0098,-0.0078,-0.01,-0.0072,-0.0062,-0.0097,-0.0087,-0.01,-0.0123,-0.0125,-0.0175,-0.0184,-0.0241,-0.0249,-0.0281,-0.0332,-0.0355,-0.0346,-0.0414,-0.0415,-0.0418,-0.0405,-0.0396,-0.0418,-0.0409,-0.0409,-0.0409,0,-0.0054,-0.0046,-0.0016,-0.0004,-0.0001,0.0008,0.0023,0.0023,0.0002,-0.0018,-0.0046,-0.0088,-0.012,-0.018,-0.0256,-0.0248,-0.0314,-0.0364,-0.0366,-0.0386,-0.0424,-0.0431,-0.0419,-0.0566,-0.041,-0.041,-0.041,0,0.0009,0.002,0.005,0.0051,0.0051,0.0068,0.0069,0.0059,0.0075,0.0048,0.0055,-0.0002,-0.0019,-0.0111,-0.0217,-0.0237,-0.0304,-0.0346,-0.0414,-0.0416,-0.0425,-0.0427,-0.0555,-0.0403,-0.0403,-0.0403,-0.0403,0,0.0061,0.0089,0.0082,0.01,0.0147,0.0127,0.0171,0.0161,0.0162,0.0197,0.0114,0.0134,-0.0004,-0.0061,-0.0178,-0.0286,-0.0276,-0.0396,-0.042,-0.041,-0.0411,-0.0553,-0.0646,-0.0404,-0.0404,-0.0404,-0.0403,0,0.0123,0.0115,0.0155,0.0166,0.0177,0.021,0.0235,0.0269,0.0253,0.0296,0.0293,0.0246,0.0174,0.0035,-0.0101,-0.0218,-0.042,-0.0381,-0.0354,-0.0374,-0.058,-0.0669,-0.0826,-0.0884,-0.0457,-0.0457,-0.0457,0,0.0154,0.018,0.021,0.024,0.0246,0.0284,0.0317,0.0313,0.0354,0.0375,0.0414,0.0362,0.0348,0.0147,-0.0068,-0.0263,-0.042,-0.0398,-0.0441,-0.058,-0.0699,-0.0776,-0.0819,-0.0439,-0.0439,-0.0439,-0.0439,0,0.0216,0.0224,0.0254,0.0313,0.0354,0.0401,0.0448,0.0497,0.051,0.0551,0.0611,0.0605,0.0421,0.0246,-0.0034,-0.0191,-0.051,-0.0406,-0.0562,-0.07,-0.0781,-0.085,-0.0431,-0.044,-0.0439,-0.0439,-0.0439,-0.0439,0.0265,0.0295,0.0333,0.0393,0.0443,0.0514,0.0564,0.0631,0.071,0.0786,0.0774,0.079,0.0513,0.0145,-0.0082,-0.0503,-0.0522,-0.0638,-0.0734,-0.0798,-0.0863,-0.0438,-0.047,-0.047,-0.047,-0.047,-0.047,0,0.0324,0.0354,0.0412,0.0477,0.0541,0.0554,0.0652,0.0709,0.0819,0.09,0.095,0.0827,0.0479,0.0099,-0.0453,-0.0766,-0.0891,-0.0952,-0.1069,-0.1096,-0.0722,-0.0729,-0.0804,-0.0804,-0.0804,-0.0804,-0.0804,-0.0803,0.0356,0.0417,0.044,0.0547,0.0597,0.0681,0.0739,0.0835,0.0912,0.1001,0.1017,0.1006,0.0716,-0.0255,-0.0947,-0.1121,-0.135,-0.141,-0.152,-0.1281,-0.126,-0.1239,-0.1268,-0.1454,-0.1455,-0.1841,-0.1846,-0.1849]}],[{"header":{"parameterUnit":"m.s-1","parameterCategory":2,"la1":30.2991,"la2":30.254,"lo1":-89.0895,"lo2":-89.0444,"dy":0.0017,"dx":0.0017,"nx":28,"ny":28,"refTime":"2024-12-07T03:00:00:Z","depth":"2","parameterNumber":2,"parameterNumberName":"U-component_of_CURRENTS"},"data":[0,0,0,0,0,0,0,0,0,0,0,0,0,0,0,0,0,0,0,0,0,0,0,0,0,0,0,0,0,0,0,0,0,0,0,0,0,0,0,0,0,0,0,0,0,0,0,0,0,0,0,0,0,0,0,0,0,0,0.2273,0.2273,0,0.2273,0.2273,0.2273,0.2271,0.2271,0.2271,0.2271,0.2258,0.2258,0.2257,0,0,0,0,0,0,0,0,0,0,0,0,0,0.2234,0.2235,0.2273,0.2273,0.2273,0.2273,0.2273,0.2273,0.2271,0.2271,0.2271,0.2271,0.2258,0.2258,0.2257,0,0,0,0,0,0,0,0,0,0,0,0,0,0.2243,0.2235,0.2273,0.2274,0.2274,0.2273,0.2273,0.2273,0.2271,0.2271,0.2271,0.2271,0.2259,0.2258,0.2257,0.225,0,0,0.2255,0.2255,0,0,0,0,0,0,0,0,0.2242,0.2244,0.2273,0.2274,0.2274,0.2274,0.2254,0.2265,0.2271,0.227,0.2271,0.2271,0.2263,0.2262,0.226,0.2249,0.2249,0.2255,0.2255,0.2254,0.2254,0,0,0,0,0,0,0,0.2242,0.2244,0.2271,0.2274,0.2274,0.2261,0.2263,0.2256,0.2264,0.227,0.2271,0.2273,0.2263,0.226,0.2259,0.2249,0.2255,0.2255,0.2254,0.2254,0.2286,0.2287,0,0,0,0,0,0,0.2247,0.2243,0.2271,0.2271,0.226,0.2262,0.2264,0.2272,0.2265,0.2264,0.2273,0.2273,0.2261,0.226,0.2259,0.2296,0.2254,0.2254,0.2253,0.2285,0.2286,0.2288,0,0,0,0,0,0,0.2246,0.225,0.2271,0.2258,0.226,0.2263,0.2272,0.2272,0.2285,0.2267,0.2266,0.2288,0.2261,0.226,0.227,0.2294,0.2254,0.2253,0.2283,0.2285,0.2287,0.2341,0,0,0,0,0,0,0.2245,0.225,0.2256,0.2259,0.2261,0.2287,0.2272,0.2272,0.2286,0.2286,0.2279,0.2277,0.2261,0.2271,0.2269,0.2292,0.2252,0.2282,0.2284,0.2286,0.2338,0.2345,0.2351,0,0,0,0,0,0.2244,0.2252,0.2257,0.226,0.2271,0.2288,0.2289,0.2289,0.2287,0.23,0.2294,0.2278,0.2285,0.2272,0.2269,0.2292,0.2281,0.2284,0.2286,0.2335,0.2343,0.2351,0,0,0,0,0,0,0.2231,0.2252,0.2258,0.227,0.2288,0.2289,0.2297,0.23,0.2306,0.2305,0.2289,0.2287,0.2308,0.2294,0.2279,0.231,0.2282,0.2285,0.232,0.2328,0.2334,0.2339,0.2252,0,0,0,0,0,0.2234,0.225,0.2268,0.2279,0.2291,0.2299,0.2305,0.2309,0.2313,0.2316,0.2313,0.231,0.2315,0.2317,0.2315,0.2328,0.2329,0.2344,0.235,0.2356,0.2359,0.2387,0.2396,0.2297,0.2297,0.2297,0,0,0.2229,0.2245,0.2251,0.2278,0.2289,0.2309,0.2303,0.2321,0.2335,0.2313,0.2331,0.2332,0.2324,0.2342,0.235,0.2334,0.2387,0.2359,0.2364,0.2364,0.2391,0.24,0.2409,0.2299,0.2299,0.2298,0,0,0.2229,0.2248,0.2263,0.2284,0.2311,0.232,0.2332,0.2349,0.2358,0.2376,0.2368,0.2386,0.2386,0.239,0.2391,0.2432,0.2421,0.2435,0.2468,0.2495,0.2503,0.2511,0.2534,0.2542,0.2436,0.2436,0.2436,0,0.2221,0.2247,0.2269,0.2294,0.2309,0.233,0.235,0.2365,0.2381,0.2395,0.239,0.2414,0.241,0.2436,0.2453,0.2447,0.2459,0.2438,0.2504,0.2511,0.2517,0.2539,0.2548,0.2439,0.2439,0.2438,0.2438,0,0.2236,0.2259,0.2273,0.2313,0.2333,0.2356,0.2384,0.2409,0.2423,0.2436,0.2472,0.2473,0.2488,0.2496,0.2486,0.2533,0.2526,0.251,0.2483,0.253,0.255,0.2559,0.2443,0.2442,0.2441,0.2441,0,0,0.2204,0.2271,0.2276,0.2298,0.2347,0.2362,0.2402,0.2441,0.2467,0.2492,0.2526,0.2548,0.2557,0.2559,0.2557,0.2582,0.2642,0.257,0.257,0.2591,0.2707,0.2688,0.2695,0.264,0.2642,0.2643,0.2705,0,0.2208,0.2253,0.2287,0.2325,0.2349,0.239,0.2424,0.2461,0.2493,0.2532,0.2557,0.2586,0.2578,0.2592,0.262,0.2636,0.2666,0.2627,0.2659,0.266,0.2636,0.2705,0.2494,0.253,0.2713,0.2715,0.2716,0,0.2205,0.2239,0.2277,0.2336,0.2352,0.2379,0.2439,0.2474,0.2538,0.2564,0.2607,0.2625,0.2676,0.2657,0.272,0.2697,0.271,0.272,0.2722,0.269,0.2657,0.2511,0.2539,0.2729,0.2728,0.2727,0.2726,0,0.216,0.2226,0.2256,0.2277,0.2348,0.2377,0.2419,0.2482,0.2515,0.2589,0.2622,0.2677,0.2713,0.2743,0.2776,0.2753,0.2842,0.2806,0.2802,0.2801,0.2619,0.2599,0.2852,0.2852,0.2852,0.2852,0.2852,0,0.2141,0.2165,0.2241,0.2258,0.2293,0.2356,0.2398,0.2451,0.2526,0.2567,0.2636,0.2677,0.2739,0.2794,0.2805,0.2844,0.2869,0.2827,0.2824,0.2633,0.2615,0.2777,0.2768,0.2854,0.2854,0.2853,0.2853,0,0.2083,0.2136,0.2169,0.2248,0.227,0.2295,0.2377,0.2412,0.2497,0.2556,0.2584,0.2696,0.2775,0.2832,0.2893,0.2885,0.2915,0.2917,0.2695,0.2666,0.2844,0.2837,0.2916,0.2916,0.2916,0.2916,0.2916,0,0.2058,0.2071,0.2142,0.2159,0.2196,0.2244,0.2278,0.2375,0.242,0.2555,0.2584,0.27,0.2756,0.2864,0.288,0.2917,0.294,0.273,0.2647,0.2866,0.2855,0.2847,0.284,0.2425,0.2421,0.2418,0.2415,0,0.2005,0.2032,0.2062,0.2097,0.2133,0.2163,0.2231,0.2256,0.2374,0.2437,0.253,0.2592,0.2724,0.268,0.2756,0.2741,0.2708,0.2667,0.2952,0.2453,0.2411,0.2398,0.2405,0.2386,0.2389,0.2391,0.2393,0.2394,0.1959,0.1963,0.2004,0.2026,0.2062,0.2078,0.2073,0.215,0.2198,0.2266,0.2398,0.2424,0.249,0.2504,0.2459,0.2437,0.2616,0.2484,0.249,0.2501,0.2445,0.2406,0.2369,0.2372,0.2374,0.2376,0.2378,0,0.1886,0.1906,0.1931,0.1951,0.1948,0.1997,0.2033,0.2009,0.2023,0.2111,0.2171,0.2053,0.2059,0.2117,0.2056,0.2094,0.2033,0.1997,0.188,0.1913,0.1942,0.1852,0.1622,0.1619,0.1616,0.1613,0,0,0.1851,0.1842,0.1854,0.1824,0.184,0.1801,0.1794,0.1778,0.181,0.1786,0.1787,0.1949,0.2057,0.1793,0.1794,0.1685,0.1771,0.1626,0.2242,0.2137,0.2161,0.2249,0.2153,0,0,0,0,0]},{"header":{"parameterUnit":"m.s-1","parameterCategory":2,"la1":30.2991,"la2":30.254,"lo1":-89.0895,"lo2":-89.0444,"dy":0.0017,"dx":0.0017,"nx":28,"ny":28,"refTime":"2024-12-07T03:00:00:Z","depth":"2","parameterNumber":3,"parameterNumberName":"V-component_of_CURRENTS"},"data":[0,0,0,0,0,0,0,0,0,0,0,0,0,0,0,0,0,0,0,0,0,0,0,0,0,0,0,0,0,0,0,0,0,0,0,0,0,0,0,0,0,0,0,0,0,0,0,0,0,0,0,0,0,0,0,0,0,0,-0.0142,-0.0143,0,-0.0181,-0.0182,-0.0182,-0.0221,-0.0221,-0.0222,-0.0222,-0.0278,-0.0279,-0.028,0,0,0,0,0,0,0,0,0,0,0,0,0,-0.0107,-0.0107,-0.0142,-0.0143,-0.0143,-0.0181,-0.0182,-0.0182,-0.0221,-0.0221,-0.0222,-0.0222,-0.0278,-0.0279,-0.028,0,0,0,0,0,0,0,0,0,0,0,0,0,-0.0133,-0.0108,-0.0142,-0.0166,-0.0168,-0.0181,-0.0182,-0.0183,-0.0221,-0.0221,-0.0222,-0.0222,-0.0277,-0.0279,-0.028,-0.028,0,0,-0.0286,-0.0286,0,0,0,0,0,0,0,0,-0.0131,-0.0134,-0.0162,-0.0164,-0.0167,-0.0195,-0.019,-0.0215,-0.022,-0.0202,-0.0222,-0.0223,-0.0251,-0.0254,-0.0262,-0.0282,-0.0285,-0.0286,-0.0287,-0.0288,-0.0288,0,0,0,0,0,0,0,-0.013,-0.0133,-0.0159,-0.0162,-0.0165,-0.0176,-0.018,-0.0195,-0.0224,-0.0204,-0.0206,-0.0208,-0.0252,-0.0261,-0.0264,-0.0285,-0.0286,-0.0287,-0.0288,-0.0289,-0.0325,-0.0325,0,0,0,0,0,0,-0.0121,-0.0131,-0.0158,-0.016,-0.0148,-0.0176,-0.0181,-0.0187,-0.0224,-0.0229,-0.0208,-0.021,-0.0257,-0.0262,-0.0266,-0.0275,-0.0288,-0.0289,-0.029,-0.0325,-0.0325,-0.0325,0,0,0,0,0,0,-0.012,-0.0123,-0.0156,-0.0145,-0.015,-0.0176,-0.0182,-0.0187,-0.0205,-0.0226,-0.0233,-0.0221,-0.0258,-0.0264,-0.0281,-0.0277,-0.029,-0.0291,-0.0326,-0.0325,-0.0325,-0.0288,0,0,0,0,0,0,-0.0119,-0.0123,-0.0124,-0.0145,-0.015,-0.0163,-0.0182,-0.0188,-0.0204,-0.0207,-0.0239,-0.0244,-0.0259,-0.0278,-0.0282,-0.028,-0.0293,-0.0326,-0.0325,-0.0325,-0.0289,-0.0286,-0.0284,0,0,0,0,0,-0.0118,-0.0111,-0.0123,-0.0127,-0.0151,-0.0163,-0.0167,-0.0188,-0.0204,-0.0207,-0.0229,-0.0244,-0.0281,-0.0279,-0.0285,-0.0282,-0.0326,-0.0325,-0.0325,-0.029,-0.0287,-0.0284,0,0,0,0,0,0,-0.0093,-0.0115,-0.0129,-0.013,-0.0146,-0.0169,-0.0171,-0.019,-0.0211,-0.0214,-0.0242,-0.0249,-0.0263,-0.0278,-0.0276,-0.0293,-0.0306,-0.0307,-0.0277,-0.0275,-0.0272,-0.0254,-0.0294,0,0,0,0,0,-0.0088,-0.0093,-0.0116,-0.0117,-0.0124,-0.0151,-0.0159,-0.0173,-0.0193,-0.0204,-0.0228,-0.0249,-0.0265,-0.0274,-0.0291,-0.0298,-0.0313,-0.0301,-0.0299,-0.0296,-0.0286,-0.0308,-0.0306,-0.0325,-0.0325,-0.0325,0,0,-0.0079,-0.0091,-0.0094,-0.0112,-0.0128,-0.0128,-0.0158,-0.0167,-0.0166,-0.0205,-0.0216,-0.0242,-0.0266,-0.0274,-0.0282,-0.0287,-0.03,-0.0296,-0.0294,-0.0284,-0.0308,-0.0306,-0.0304,-0.0325,-0.0325,-0.0325,0,0,-0.0055,-0.0075,-0.0069,-0.0081,-0.0099,-0.0111,-0.0115,-0.0142,-0.0155,-0.0169,-0.0194,-0.0217,-0.0246,-0.0257,-0.0267,-0.0261,-0.0287,-0.0272,-0.0243,-0.0265,-0.0264,-0.0262,-0.0279,-0.028,-0.027,-0.027,-0.027,0,-0.0041,-0.0039,-0.0068,-0.0064,-0.0064,-0.0103,-0.009,-0.0108,-0.0137,-0.0141,-0.0167,-0.0208,-0.0234,-0.0236,-0.0238,-0.0254,-0.0271,-0.0252,-0.0261,-0.026,-0.026,-0.0277,-0.0278,-0.0268,-0.0268,-0.0268,-0.0268,0,-0.0013,-0.0013,-0.001,-0.0017,-0.0021,-0.0018,-0.004,-0.0051,-0.0077,-0.0096,-0.0116,-0.0157,-0.018,-0.0197,-0.0217,-0.0223,-0.0238,-0.0256,-0.0266,-0.0255,-0.0275,-0.0276,-0.0265,-0.0266,-0.0266,-0.0267,0,0,0.0024,0.0013,0.0014,0.0023,0.0006,0.001,0.0012,0.0007,0.0011,-0.0035,-0.0033,-0.0078,-0.0112,-0.0125,-0.0159,-0.0183,-0.0202,-0.0216,-0.0218,-0.0227,-0.0249,-0.0261,-0.0265,-0.0226,-0.0226,-0.0226,-0.0264,0,0.0056,0.0079,0.0065,0.0092,0.0106,0.0079,0.0087,0.0076,0.0053,0.0041,-0.0009,-0.0027,-0.008,-0.0095,-0.0127,-0.0178,-0.0205,-0.0189,-0.0262,-0.0264,-0.0272,-0.0266,-0.0245,-0.0278,-0.0266,-0.0266,-0.0266,0,0.0094,0.0105,0.0137,0.0155,0.0158,0.0165,0.0178,0.0179,0.0152,0.013,0.0096,0.0054,0.0017,-0.0038,-0.0118,-0.0108,-0.0174,-0.0221,-0.0224,-0.0247,-0.028,-0.0287,-0.0282,-0.027,-0.0269,-0.0269,-0.0269,0,0.0144,0.0161,0.0192,0.0194,0.0202,0.0213,0.0214,0.0203,0.0218,0.0183,0.0186,0.0124,0.0102,0.0011,-0.0092,-0.0107,-0.0183,-0.0216,-0.0288,-0.029,-0.029,-0.0291,-0.0276,-0.0276,-0.0276,-0.0276,-0.0276,0,0.019,0.0214,0.0213,0.0228,0.027,0.0257,0.0292,0.0281,0.0281,0.0311,0.0231,0.0244,0.0111,0.0052,-0.0061,-0.0172,-0.0161,-0.0276,-0.0299,-0.0277,-0.0277,-0.0285,-0.0285,-0.0277,-0.0277,-0.0277,-0.0276,0,0.0238,0.0235,0.0272,0.0285,0.0293,0.0319,0.0345,0.0373,0.0356,0.0394,0.0389,0.0341,0.0262,0.0128,-0.0007,-0.0116,-0.0231,-0.0278,-0.024,-0.0258,-0.0333,-0.0331,-0.0359,-0.036,-0.0361,-0.0361,-0.0362,0,0.0262,0.0286,0.0315,0.0343,0.0346,0.0377,0.0408,0.0407,0.0446,0.0463,0.0498,0.0437,0.0412,0.0207,0.0006,-0.0185,-0.022,-0.03,-0.033,-0.0321,-0.0341,-0.0338,-0.0335,-0.0317,-0.0317,-0.0317,-0.0317,0,0.0312,0.0318,0.0347,0.0401,0.0437,0.0484,0.0526,0.0574,0.059,0.0622,0.0666,0.0648,0.0462,0.0283,0.0013,-0.0123,-0.027,-0.0307,-0.0303,-0.0299,-0.0285,-0.0303,-0.0301,-0.0318,-0.0318,-0.0318,-0.0318,-0.0317,0.0349,0.0377,0.0413,0.0467,0.0515,0.0584,0.063,0.0691,0.0761,0.0816,0.08,0.0769,0.0564,0.0227,-0.0005,-0.0264,-0.026,-0.0356,-0.0354,-0.0353,-0.0341,-0.0328,-0.0367,-0.0367,-0.0367,-0.0368,-0.0368,0,0.0398,0.0426,0.048,0.054,0.06,0.0615,0.071,0.0758,0.0849,0.0894,0.0918,0.073,0.0528,0.0277,-0.0097,-0.0317,-0.0339,-0.0393,-0.0367,-0.0365,-0.0364,-0.0351,-0.0381,-0.0382,-0.0382,-0.0383,0,0,0.0424,0.0479,0.0502,0.06,0.0646,0.0725,0.0781,0.0856,0.0903,0.0944,0.0927,0.0895,0.0602,0.0336,0.0041,-0.0174,-0.0227,-0.0223,-0.0189,-0.0123,-0.0119,-0.0319,-0.0295,0,0,0,0,0]}],[{"header":{"parameterUnit":"m.s-1","parameterCategory":2,"la1":30.2991,"la2":30.254,"lo1":-89.0895,"lo2":-89.0444,"dy":0.0017,"dx":0.0017,"nx":28,"ny":28,"refTime":"2024-12-07T03:00:00:Z","depth":"4","parameterNumber":2,"parameterNumberName":"U-component_of_CURRENTS"},"data":[0,0,0,0,0,0,0,0,0,0,0,0,0,0,0,0,0,0,0,0,0,0,0,0,0,0,0,0,0,0,0,0,0,0,0,0,0,0,0,0,0,0,0,0,0,0,0,0,0,0,0,0,0,0,0,0,0,0,0.1362,0.1363,0,0.1425,0.1425,0.1426,0.1483,0.1484,0.1485,0.1486,0.1568,0.1569,0.1571,0,0,0,0,0,0,0,0,0,0,0,0,0,0.1296,0.1297,0.1362,0.1363,0.1364,0.1425,0.1425,0.1426,0.1483,0.1484,0.1485,0.1486,0.1567,0.1569,0.1571,0,0,0,0,0,0,0,0,0,0,0,0,0,0.1338,0.1298,0.1362,0.14,0.1404,0.1424,0.1425,0.1426,0.1483,0.1484,0.1485,0.1486,0.1567,0.1569,0.1571,0.1563,0,0,0.1578,0.1579,0,0,0,0,0,0,0,0,0.1336,0.134,0.1393,0.1397,0.1402,0.1448,0.1433,0.1473,0.1483,0.1452,0.1486,0.1487,0.1529,0.1534,0.1543,0.1567,0.157,0.1578,0.158,0.1581,0.1581,0,0,0,0,0,0,0,0.1333,0.1338,0.1386,0.1394,0.1399,0.1415,0.1422,0.144,0.1484,0.1455,0.146,0.1467,0.1531,0.154,0.1545,0.1571,0.1578,0.158,0.1582,0.1582,0.1687,0.1689,0,0,0,0,0,0,0.1325,0.1335,0.1384,0.1388,0.1371,0.1416,0.1423,0.1432,0.1483,0.1492,0.1466,0.1469,0.1536,0.1542,0.1548,0.1628,0.1581,0.1583,0.1584,0.1686,0.1688,0.1689,0,0,0,0,0,0,0.1323,0.1328,0.1382,0.1364,0.1372,0.1416,0.1424,0.1432,0.1473,0.1491,0.1501,0.1502,0.1537,0.1545,0.1596,0.1628,0.1584,0.1586,0.1684,0.1687,0.1689,0.1732,0,0,0,0,0,0,0.1321,0.1327,0.1346,0.1363,0.1372,0.1414,0.1423,0.1433,0.1474,0.148,0.1525,0.1532,0.1539,0.1593,0.1598,0.1631,0.1587,0.1683,0.1685,0.1688,0.1728,0.1735,0.1741,0,0,0,0,0,0.1318,0.1333,0.1346,0.1353,0.1391,0.1415,0.1422,0.1456,0.1475,0.1496,0.1532,0.1532,0.1614,0.1596,0.1602,0.1636,0.1681,0.1685,0.1688,0.1726,0.1734,0.1741,0,0,0,0,0,0,0.1316,0.1341,0.1355,0.1379,0.1405,0.1426,0.1452,0.1472,0.1515,0.1532,0.1549,0.1559,0.1616,0.1619,0.1598,0.1674,0.1648,0.1653,0.1675,0.1682,0.1688,0.1688,0.1589,0,0,0,0,0,0.1322,0.1343,0.1365,0.1389,0.1404,0.1433,0.1454,0.1476,0.1508,0.153,0.1561,0.1595,0.1628,0.1651,0.1677,0.1715,0.1719,0.1742,0.1748,0.1753,0.1758,0.179,0.1799,0.17,0.17,0.17,0,0,0.1328,0.1346,0.1359,0.1391,0.1416,0.144,0.145,0.1489,0.1519,0.1531,0.1593,0.162,0.1644,0.1692,0.1717,0.1703,0.1785,0.1757,0.1762,0.1763,0.1794,0.1804,0.1812,0.1702,0.1702,0.1701,0,0,0.1339,0.1368,0.1387,0.141,0.1451,0.1467,0.1484,0.1522,0.1555,0.1606,0.1627,0.1675,0.1722,0.1746,0.1762,0.1817,0.1817,0.1831,0.1862,0.1894,0.1902,0.1909,0.1928,0.1937,0.1833,0.1833,0.1833,0,0.1349,0.1373,0.1397,0.1421,0.1447,0.1481,0.1508,0.154,0.1594,0.1626,0.1635,0.1724,0.1745,0.1802,0.1826,0.1831,0.1846,0.1831,0.1901,0.1908,0.1915,0.1933,0.1942,0.1835,0.1835,0.1835,0.1834,0,0.1365,0.1397,0.1412,0.1452,0.1483,0.1515,0.1554,0.1599,0.1642,0.1673,0.1751,0.1783,0.1836,0.1852,0.1858,0.1922,0.1916,0.1905,0.1879,0.1927,0.1943,0.1952,0.1839,0.1838,0.1837,0.1836,0,0,0.135,0.1411,0.142,0.1447,0.1505,0.1527,0.1587,0.1644,0.169,0.1749,0.1809,0.1871,0.1899,0.1919,0.1938,0.1966,0.2027,0.1962,0.1963,0.1976,0.2097,0.1981,0.1979,0.2033,0.2034,0.2036,0.209,0,0.1358,0.1402,0.1436,0.1487,0.1512,0.1568,0.1617,0.1678,0.1734,0.18,0.1852,0.1916,0.1921,0.1958,0.199,0.2023,0.2052,0.2013,0.2053,0.2054,0.1941,0.1986,0.2041,0.2096,0.2098,0.2099,0.21,0,0.1355,0.1388,0.1437,0.1507,0.1525,0.1568,0.1656,0.1706,0.18,0.1847,0.192,0.1962,0.2036,0.2022,0.2102,0.2082,0.2098,0.2109,0.2111,0.1992,0.1953,0.2039,0.2115,0.2114,0.2113,0.2112,0.2111,0,0.1317,0.1386,0.1428,0.1453,0.1535,0.1583,0.1637,0.1729,0.1779,0.1887,0.1936,0.202,0.2077,0.2114,0.2157,0.214,0.2227,0.2199,0.2107,0.2099,0.2168,0.216,0.2247,0.2247,0.2247,0.2246,0.2246,0,0.1294,0.1331,0.142,0.1442,0.1502,0.1572,0.1646,0.1714,0.1812,0.187,0.1963,0.2014,0.2106,0.2165,0.2182,0.2174,0.2251,0.2119,0.2108,0.2185,0.2178,0.2174,0.2165,0.2248,0.2248,0.2248,0.2247,0,0.124,0.1299,0.1351,0.1449,0.1484,0.1531,0.1642,0.1689,0.1796,0.1875,0.1916,0.2036,0.2109,0.2179,0.2247,0.2196,0.2204,0.2181,0.227,0.2262,0.2047,0.2039,0.207,0.2066,0.2063,0.206,0.2058,0,0.1213,0.1235,0.1342,0.1377,0.1429,0.1507,0.1557,0.167,0.1718,0.1867,0.1895,0.2014,0.2079,0.2079,0.2161,0.2185,0.2163,0.2149,0.2082,0.2044,0.203,0.2028,0.2025,0.2053,0.2053,0.2052,0.2051,0,0.116,0.1212,0.1256,0.1327,0.1389,0.1438,0.1523,0.1541,0.1668,0.178,0.1827,0.1869,0.195,0.1999,0.2042,0.2052,0.2145,0.2116,0.2121,0.2058,0.2025,0.2014,0.2014,0.204,0.2042,0.2043,0.2043,0,0.1127,0.1143,0.121,0.126,0.1332,0.1354,0.1402,0.1456,0.1511,0.1672,0.1683,0.1809,0.1923,0.1931,0.1969,0.1977,0.1941,0.1869,0.1886,0.1899,0.182,0.1751,0.1678,0,0,0,0,0,0.1082,0.1091,0.1136,0.1182,0.1249,0.1286,0.1373,0.1423,0.154,0.153,0.16,0.1663,0.1718,0.1785,0.1759,0.1905,0.1956,0.1868,0.1883,0.1982,0.1994,0.1918,0,0,0,0,0,0,0.1051,0.1091,0.1105,0.1107,0.1123,0.1176,0.1224,0.1301,0.1298,0.1426,0.1464,0.1567,0.1647,0.1716,0.1729,0.1751,0.1727,0.1951,0.1947,0.1975,0.1986,0.1996,0.1922,0,0,0,0,0]},{"header":{"parameterUnit":"m.s-1","parameterCategory":2,"la1":30.2991,"la2":30.254,"lo1":-89.0895,"lo2":-89.0444,"dy":0.0017,"dx":0.0017,"nx":28,"ny":28,"refTime":"2024-12-07T03:00:00:Z","depth":"4","parameterNumber":3,"parameterNumberName":"V-component_of_CURRENTS"},"data":[0,0,0,0,0,0,0,0,0,0,0,0,0,0,0,0,0,0,0,0,0,0,0,0,0,0,0,0,0,0,0,0,0,0,0,0,0,0,0,0,0,0,0,0,0,0,0,0,0,0,0,0,0,0,0,0,0,0,0.0083,0.0083,0,0.0046,0.0046,0.0045,0.0018,0.0018,0.0017,0.0017,-0.0029,-0.003,-0.0031,0,0,0,0,0,0,0,0,0,0,0,0,0,0.0103,0.0103,0.0083,0.0083,0.0083,0.0046,0.0046,0.0045,0.0018,0.0018,0.0017,0.0017,-0.0029,-0.003,-0.0031,0,0,0,0,0,0,0,0,0,0,0,0,0,0.0082,0.0103,0.0083,0.0065,0.0063,0.0047,0.0046,0.0045,0.0018,0.0018,0.0017,0.0017,-0.0028,-0.003,-0.0031,-0.0036,0,0,-0.0036,-0.0037,0,0,0,0,0,0,0,0,0.0084,0.0082,0.0068,0.0066,0.0064,0.0037,0.0036,0.0018,0.0018,0.0034,0.0017,0.0017,-0.0007,-0.001,-0.0018,-0.0038,-0.004,-0.0036,-0.0037,-0.0038,-0.0038,0,0,0,0,0,0,0,0.0085,0.0083,0.0068,0.0068,0.0065,0.0049,0.0046,0.0032,0.0015,0.0033,0.0031,0.0028,-0.0008,-0.0016,-0.0019,-0.0041,-0.0036,-0.0038,-0.0039,-0.0039,-0.0069,-0.0069,0,0,0,0,0,0,0.0093,0.0084,0.0069,0.0067,0.0074,0.0049,0.0046,0.0045,0.0015,0.0011,0.0028,0.0027,-0.0013,-0.0017,-0.0021,-0.0023,-0.0038,-0.0039,-0.004,-0.0069,-0.0069,-0.0069,0,0,0,0,0,0,0.0093,0.0092,0.0071,0.0075,0.0071,0.005,0.0049,0.0045,0.0037,0.0012,0.0007,0.0025,-0.0014,-0.0018,-0.0031,-0.0026,-0.004,-0.0042,-0.0069,-0.0069,-0.0069,-0.0032,0,0,0,0,0,0,0.0094,0.0092,0.0094,0.0076,0.0072,0.0066,0.0049,0.0044,0.0036,0.0034,0.0008,0.0003,-0.0014,-0.0029,-0.0033,-0.0028,-0.0043,-0.0069,-0.0069,-0.0069,-0.0033,-0.003,-0.0028,0,0,0,0,0,0.0095,0.0101,0.0094,0.0092,0.0074,0.0066,0.0062,0.0045,0.0036,0.0036,0.0018,0.0004,-0.003,-0.003,-0.0035,-0.003,-0.0069,-0.0069,-0.0069,-0.0034,-0.0031,-0.0028,0,0,0,0,0,0,0.011,0.0098,0.009,0.0092,0.0081,0.0062,0.006,0.0048,0.0033,0.0031,0.0006,-0.0,-0.0009,-0.0025,-0.0024,-0.0038,-0.0052,-0.0052,-0.0024,-0.0021,-0.0018,-0.001,-0.0044,0,0,0,0,0,0.0115,0.0116,0.0101,0.0102,0.0099,0.008,0.0074,0.0063,0.0048,0.0041,0.0022,0.0003,-0.0012,-0.002,-0.0035,-0.0042,-0.0063,-0.0043,-0.004,-0.0038,-0.0035,-0.0063,-0.0062,-0.0067,-0.0067,-0.0067,0,0,0.012,0.0114,0.0114,0.0105,0.0095,0.0097,0.0075,0.0071,0.0071,0.0039,0.0033,0.0012,-0.0011,-0.002,-0.0025,-0.0032,-0.0048,-0.0037,-0.0035,-0.0033,-0.0062,-0.0062,-0.0061,-0.0067,-0.0067,-0.0067,0,0,0.0136,0.0129,0.0135,0.013,0.012,0.011,0.0111,0.0094,0.0085,0.0077,0.0054,0.0037,0.0015,-0.0001,-0.0012,-0.0004,-0.0032,-0.0009,0.0011,-0.0016,-0.0015,-0.0015,-0.0042,-0.0045,-0.0007,-0.0007,-0.0007,0,0.0143,0.015,0.0135,0.0141,0.0141,0.012,0.0129,0.0117,0.0098,0.0092,0.008,0.0044,0.0024,0.0012,0.0014,0.0002,-0.0018,0.0002,-0.0012,-0.0012,-0.0013,-0.004,-0.0044,-0.0005,-0.0006,-0.0006,-0.0006,0,0.0162,0.0168,0.0173,0.0174,0.0172,0.0178,0.0164,0.0158,0.0145,0.0129,0.0113,0.0082,0.006,0.0051,0.0035,0.0022,0.0007,-0.0005,-0.0019,-0.001,-0.004,-0.0044,-0.0003,-0.0003,-0.0004,-0.0004,0,0,0.0178,0.0185,0.0188,0.0197,0.0192,0.0196,0.0197,0.0191,0.0193,0.0165,0.0161,0.0129,0.0106,0.0092,0.0067,0.0044,0.002,0.002,0.0018,-0.0003,-0.0041,-0.0048,-0.0054,0.0004,0.0004,0.0003,-0.006,0,0.0199,0.022,0.0218,0.0241,0.0252,0.024,0.0245,0.0235,0.022,0.0209,0.017,0.0157,0.0124,0.0115,0.0085,0.0039,0.001,0.0038,-0.0049,-0.0051,-0.0056,-0.0058,0.0002,-0.0063,-0.0064,-0.0065,-0.0065,0,0.0219,0.0232,0.0259,0.0279,0.0283,0.0293,0.0299,0.0301,0.0278,0.0263,0.0235,0.0204,0.0167,0.0139,0.0057,0.0076,0.002,-0.002,-0.0024,-0.0045,-0.0066,-0.0074,-0.0074,-0.0073,-0.0072,-0.0072,-0.0071,0,0.0239,0.0263,0.0288,0.0294,0.0309,0.032,0.0327,0.0316,0.0326,0.0298,0.0297,0.024,0.0219,0.0143,0.0058,0.0056,-0.0034,-0.005,-0.011,-0.0112,-0.0103,-0.0102,-0.0112,-0.0112,-0.0112,-0.0111,-0.0111,0,0.0261,0.0282,0.0301,0.0314,0.0347,0.0347,0.0373,0.0369,0.0369,0.0383,0.0328,0.0323,0.022,0.0157,0.007,-0.0031,-0.003,-0.0108,-0.0128,-0.0086,-0.0083,-0.0106,-0.0105,-0.0114,-0.0113,-0.0113,-0.0112,0,0.0277,0.0288,0.032,0.0345,0.0358,0.038,0.0414,0.0432,0.0425,0.0442,0.0439,0.0384,0.03,0.0192,0.0069,-0.0008,-0.0108,-0.0146,-0.009,-0.0106,-0.0172,-0.0168,-0.0221,-0.0222,-0.0223,-0.0223,-0.0224,0,0.0286,0.0303,0.0345,0.0369,0.0383,0.0416,0.0443,0.0456,0.0478,0.048,0.0492,0.0425,0.0371,0.0197,0.0073,-0.0098,-0.0124,-0.018,-0.0182,-0.0169,-0.0184,-0.0178,-0.0174,-0.0225,-0.0225,-0.0225,-0.0225,0,0.0303,0.0318,0.0344,0.0394,0.043,0.0471,0.0511,0.0534,0.0551,0.0551,0.0536,0.0447,0.0349,0.0205,0.0071,-0.0052,-0.0145,-0.0188,-0.0187,-0.0189,-0.0174,-0.0186,-0.0181,-0.0228,-0.0227,-0.0227,-0.0227,0,0.0317,0.0336,0.0372,0.0415,0.0464,0.051,0.0531,0.0559,0.0581,0.0586,0.0579,0.0473,0.0412,0.0228,0.0106,-0.0018,-0.0055,-0.0099,-0.0104,-0.0103,-0.0054,-0.0016,-0.0038,0,0,0,0,0,0.0328,0.0349,0.0391,0.0437,0.0487,0.0516,0.0571,0.0587,0.0608,0.0607,0.0596,0.0505,0.0327,0.0251,0.0126,0.0078,-0.0086,-0.0074,-0.0142,-0.024,-0.0237,-0.02,0,0,0,0,0,0,0.0334,0.0372,0.0388,0.0447,0.0481,0.0538,0.0574,0.0592,0.0591,0.0595,0.0506,0.0465,0.0292,0.0398,0.012,0.0082,0.002,-0.0156,-0.0159,-0.0241,-0.0239,-0.0237,-0.0198,0,0,0,0,0]}]]